period_start,C,m1,H,J0,J1,J2,J3,J4,J5,JA,JB,JC,JD,JJ,JK,JN,#
2016-04-30 00:02:31,0.04,2.37,0.00,20.65,25.57,29.34,14.59,50.12,1008.80,2041.27,2599.62,2556.07,2864.10,599.98,596.31,40.84,0000 0000 0000 0000 000000
2016-04-30 00:07:32,0.07,2.37,0.00,20.66,25.57,29.35,14.61,50.02,1008.81,2041.43,2598.73,2555.61,2863.51,600.09,596.35,40.89,0000 0000 0000 0000 000000
2016-04-30 00:12:33,0.05,2.38,0.00,20.66,25.57,29.32,14.53,50.08,1008.82,2041.69,2598.03,2555.03,2863.00,599.63,595.81,40.94,0000 0000 0000 0000 000000
2016-04-30 00:17:35,0.07,2.38,0.00,20.67,25.57,29.36,14.67,50.01,1008.83,2041.89,2597.22,2554.72,2862.24,600.17,596.33,40.99,0000 0000 0000 0000 000000
2016-04-30 00:22:36,0.04,2.38,0.00,20.67,25.56,29.35,14.63,50.13,1008.81,2041.95,2596.63,2554.04,2861.86,599.87,596.09,41.04,0000 0000 0000 0000 000000
2016-04-30 00:27:37,0.05,2.39,0.00,20.69,25.56,29.37,14.61,50.13,1008.82,2041.95,2595.82,2553.53,2861.06,600.10,596.21,41.09,0000 0000 0000 0000 000000
2016-04-30 00:32:38,0.04,2.39,0.00,20.70,25.56,29.37,14.65,50.21,1008.87,2041.93,2595.04,2553.01,2860.35,600.05,596.17,41.14,0000 0000 0000 0000 000000
2016-04-30 00:37:40,0.06,2.39,0.00,20.73,25.57,29.37,14.63,50.24,1009.03,2041.96,2594.27,2552.43,2859.90,599.64,595.72,41.20,0000 0000 0000 0000 000000
2016-04-30 00:42:41,0.04,2.39,0.00,20.74,25.57,29.41,14.61,49.99,1009.26,2041.96,2593.44,2551.97,2859.09,600.26,596.61,41.25,0000 0000 0000 0000 000000
2016-04-30 00:47:43,0.06,2.40,0.00,20.77,25.57,29.40,14.63,50.30,1009.29,2041.95,2592.68,2551.22,2858.41,599.96,596.19,41.30,0000 0000 0000 0000 000000
2016-04-30 00:52:45,0.04,2.40,0.00,20.77,25.57,29.45,14.70,50.32,1009.29,2041.88,2591.79,2550.69,2857.85,600.15,596.39,41.35,0000 0000 0000 0000 000000
2016-04-30 00:57:46,0.04,2.40,0.00,20.81,25.58,29.42,14.69,50.33,1009.29,2041.85,2590.96,2550.02,2857.04,600.29,596.28,41.40,0000 0000 0000 0000 000000
2016-04-30 01:02:47,0.04,2.40,0.00,20.83,25.60,29.45,14.67,50.35,1009.29,2041.64,2590.08,2549.37,2856.27,600.04,596.06,41.45,0000 0000 0000 0000 000000
2016-04-30 01:07:48,0.05,2.41,0.00,20.85,25.60,29.46,14.64,50.26,1009.29,2041.67,2589.34,2548.98,2855.78,599.96,596.07,41.50,0000 0000 0000 0000 000000
2016-04-30 01:12:50,0.03,2.41,0.00,20.86,25.61,29.49,14.61,50.37,1009.31,2041.58,2588.61,2548.21,2855.03,599.98,596.11,41.55,0000 0000 0000 0000 000000
2016-04-30 01:17:51,0.05,2.41,0.00,20.89,25.62,29.49,14.58,50.16,1009.34,2041.57,2587.96,2547.81,2854.32,599.91,595.91,41.60,0000 0000 0000 0000 000000
2016-04-30 01:22:53,0.02,2.41,0.00,20.91,25.63,29.50,14.62,50.09,1009.35,2041.27,2587.03,2547.04,2853.67,599.68,595.64,41.65,0000 0000 0000 0000 000000
2016-04-30 01:27:54,0.05,2.41,0.00,20.95,25.65,29.54,14.62,50.24,1009.41,2041.16,2586.13,2546.47,2853.00,599.79,595.68,41.70,0000 0000 0000 0000 000000
2016-04-30 01:32:55,0.03,2.42,0.00,20.96,25.66,29.54,14.62,50.19,1009.43,2041.09,2585.30,2545.93,2852.21,599.72,595.66,41.75,0000 0000 0000 0000 000000
2016-04-30 01:37:57,0.07,2.42,0.00,21.00,25.67,29.52,14.65,50.37,1009.47,2041.04,2584.45,2545.13,2851.51,599.86,595.71,41.80,0000 0000 0000 0000 000000
2016-04-30 01:42:58,0.06,2.42,0.00,21.03,25.69,29.58,14.69,50.42,1009.39,2041.01,2583.47,2544.54,2850.72,600.34,596.11,41.85,0000 0000 0000 0000 000000
2016-04-30 01:47:59,0.03,2.43,0.00,21.05,25.70,29.61,14.68,50.30,1009.59,2041.00,2582.68,2544.01,2850.02,600.48,596.25,41.90,0000 0000 0000 0000 000000
2016-04-30 01:53:00,0.06,2.43,0.00,21.06,25.72,29.64,14.56,50.15,1009.72,2041.00,2581.86,2543.36,2849.24,599.68,595.63,41.95,0000 0000 0000 0000 000000
2016-04-30 01:58:01,0.03,2.43,0.00,21.09,25.75,29.68,14.59,50.13,1009.77,2041.00,2581.07,2542.91,2848.75,600.06,595.89,42.00,0000 0000 0000 0000 000000
2016-04-30 02:03:02,0.06,2.43,0.00,21.14,25.76,29.66,14.65,50.19,1009.78,2041.00,2580.17,2542.08,2848.01,600.22,595.90,42.05,0000 0000 0000 0000 000000
2016-04-30 02:08:04,0.06,2.44,0.00,21.16,25.78,29.70,14.63,50.13,1009.78,2041.00,2579.30,2541.62,2847.22,599.77,595.51,42.10,0000 0000 0000 0000 000000
2016-04-30 02:13:05,0.05,2.44,0.00,21.20,25.81,29.74,14.65,50.17,1009.78,2040.99,2578.48,2540.93,2846.45,600.09,595.77,42.16,0000 0000 0000 0000 000000
2016-04-30 02:18:06,0.05,2.44,0.00,21.22,25.83,29.75,14.64,50.38,1009.79,2040.98,2577.76,2540.11,2845.72,600.03,595.61,42.21,0000 0000 0000 0000 000000
2016-04-30 02:23:08,0.04,2.44,0.00,21.26,25.85,29.75,14.54,50.31,1009.79,2040.96,2576.94,2539.68,2844.98,600.04,595.58,42.26,0000 0000 0000 0000 000000
2016-04-30 02:28:09,0.05,2.45,0.00,21.30,25.87,29.82,14.59,50.34,1009.85,2040.88,2575.99,2538.98,2844.13,599.66,595.16,42.31,0000 0000 0000 0000 000000
2016-04-30 02:33:10,0.02,2.45,0.00,21.32,25.90,29.86,14.63,50.39,1009.96,2040.46,2575.05,2538.18,2843.45,600.00,595.34,42.36,0000 0000 0000 0000 000000
2016-04-30 02:38:12,0.04,2.45,0.00,21.37,25.93,29.88,14.56,50.17,1010.01,2040.12,2574.10,2537.56,2842.60,599.89,595.42,42.41,0000 0000 0000 0000 000000
2016-04-30 02:43:13,0.04,2.45,0.00,21.43,25.95,29.90,14.65,50.28,1010.16,2040.02,2573.17,2536.90,2841.78,600.32,595.68,42.46,0000 0000 0000 0000 000000
2016-04-30 02:48:14,0.06,2.46,0.00,21.47,25.98,29.93,14.60,50.14,1010.26,2040.01,2572.23,2536.10,2841.01,599.88,595.17,42.51,0000 0000 0000 0000 000000
2016-04-30 02:53:15,0.06,2.46,0.00,21.50,26.01,30.01,14.67,50.17,1010.27,2040.00,2571.48,2535.59,2840.23,600.16,595.39,42.56,0000 0000 0000 0000 000000
2016-04-30 02:58:16,0.05,2.46,0.00,21.54,26.04,30.05,14.57,50.30,1010.27,2040.00,2570.49,2534.90,2839.44,599.94,595.07,42.61,0000 0000 0000 0000 000000
2016-04-30 03:03:17,0.06,2.46,0.00,21.57,26.06,30.03,14.56,50.27,1010.27,2040.00,2569.70,2534.07,2838.78,599.83,595.07,42.66,0000 0000 0000 0000 000000
2016-04-30 03:08:18,0.06,2.47,0.00,21.62,26.10,30.07,14.64,50.12,1010.28,2039.99,2568.75,2533.47,2837.94,600.40,595.48,42.71,0000 0000 0000 0000 000000
2016-04-30 03:13:20,0.03,2.47,0.00,21.67,26.13,30.14,14.62,50.27,1010.29,2039.92,2567.94,2532.92,2837.09,599.90,595.02,42.76,0000 0000 0000 0000 000000
2016-04-30 03:18:21,0.02,2.47,0.00,21.70,26.16,30.13,14.62,50.23,1010.32,2039.56,2567.11,2532.11,2836.33,600.15,595.04,42.81,0000 0000 0000 0000 000000
2016-04-30 03:23:22,0.04,2.47,0.00,21.75,26.20,30.17,14.59,50.17,1010.37,2039.17,2566.15,2531.43,2835.53,599.92,594.73,42.86,0000 0000 0000 0000 000000
2016-04-30 03:28:24,0.03,2.47,0.00,22.01,26.23,30.11,14.58,50.22,1010.55,2039.01,2565.51,2530.86,2834.83,600.06,594.62,42.91,0000 0000 0000 0000 000000
2016-04-30 03:33:25,0.05,2.48,0.00,22.78,26.29,29.91,14.61,50.27,1010.71,2039.00,2564.73,2530.06,2833.99,600.34,593.33,42.96,0000 0000 0000 0000 000000
2016-04-30 03:38:26,0.07,2.48,0.00,23.24,26.36,29.85,14.47,49.77,1010.73,2038.98,2563.79,2529.23,2833.06,600.25,592.32,43.01,0000 0000 0000 0000 000000
2016-04-30 03:43:28,-0.01,2.48,0.00,23.47,26.43,29.92,14.44,49.93,1010.73,2038.53,2562.90,2528.36,2832.09,599.78,591.42,43.06,0000 0000 0000 0000 000000
2016-04-30 03:48:29,0.06,2.48,0.00,23.62,26.51,30.06,14.41,50.08,1010.75,2038.03,2561.79,2527.51,2831.02,600.10,591.44,43.11,0000 0000 0000 0000 000000
2016-04-30 03:53:30,0.08,2.49,0.00,23.73,26.59,30.18,14.46,50.01,1010.76,2037.98,2560.82,2526.41,2829.93,600.46,591.47,43.17,0000 0000 0000 0000 000000
2016-04-30 03:58:31,0.01,2.49,0.00,23.87,26.68,30.25,14.42,50.18,1010.77,2037.46,2559.72,2525.50,2828.83,600.10,591.10,43.22,0000 0000 0000 0000 000000
2016-04-30 04:03:33,0.06,2.49,0.00,23.93,26.77,30.33,14.39,50.15,1010.77,2037.01,2558.71,2524.47,2827.68,599.99,590.74,43.27,0000 0000 0000 0000 000000
2016-04-30 04:08:34,0.07,2.49,0.00,23.99,26.86,30.40,14.42,50.22,1010.78,2036.95,2557.67,2523.57,2826.62,599.77,590.41,43.32,0000 0000 0000 0000 000000
2016-04-30 04:13:35,0.00,2.50,0.00,24.03,26.95,30.50,14.42,50.16,1010.85,2036.19,2556.34,2522.45,2825.40,600.25,590.84,43.37,0000 0000 0000 0000 000000
2016-04-30 04:18:37,0.07,2.50,0.00,24.15,27.04,30.58,14.34,50.10,1011.15,2036.00,2555.16,2521.41,2824.18,600.03,590.66,43.42,0000 0000 0000 0000 000000
2016-04-30 04:23:38,0.10,2.50,0.00,24.18,27.13,30.65,14.44,49.91,1011.21,2035.93,2553.66,2520.31,2822.81,600.22,590.74,43.47,0000 0000 0000 0000 000000
2016-04-30 04:28:40,0.05,2.51,0.00,24.15,27.22,30.67,14.41,50.32,1011.24,2035.24,2551.96,2518.79,2821.20,599.98,590.61,43.52,0000 0000 0000 0000 000000
2016-04-30 04:33:41,0.25,2.52,0.00,24.24,27.30,30.73,14.39,50.10,1011.24,2035.00,2548.84,2516.19,2818.37,600.01,590.49,43.57,0000 0000 0000 0000 000000
2016-04-30 04:38:42,0.09,2.53,0.00,24.33,27.38,30.77,14.28,50.01,1011.25,2034.79,2546.41,2514.11,2816.09,599.93,590.21,43.62,0000 0000 0000 0000 000000
2016-04-30 04:43:44,0.06,2.53,0.00,24.38,27.46,30.81,14.36,49.94,1011.25,2034.07,2544.76,2512.75,2814.63,599.77,589.85,43.67,0000 0000 0000 0000 000000
2016-04-30 04:48:45,0.10,2.53,0.00,24.42,27.53,30.85,14.39,49.94,1011.26,2034.00,2543.04,2511.45,2813.12,600.06,590.06,43.72,0000 0000 0000 0000 000000
2016-04-30 04:53:46,0.07,2.54,0.00,24.46,27.60,30.89,14.52,49.98,1011.27,2033.89,2541.81,2510.40,2811.95,600.40,590.34,43.77,0000 0000 0000 0000 000000
2016-04-30 04:58:47,0.02,2.54,0.00,24.46,27.66,30.93,14.35,49.93,1011.27,2033.30,2540.60,2509.48,2810.81,600.02,590.00,43.82,0000 0000 0000 0000 000000
2016-04-30 05:03:49,0.08,2.54,0.00,24.47,27.71,30.98,14.40,49.88,1011.33,2033.01,2539.02,2508.37,2809.62,600.16,590.16,43.87,0000 0000 0000 0000 000000
2016-04-30 05:08:50,0.10,2.55,0.00,24.51,27.76,31.01,14.44,49.93,1011.39,2032.99,2537.58,2507.28,2808.34,600.43,590.29,43.92,0000 0000 0000 0000 000000
2016-04-30 05:13:51,0.07,2.55,0.00,24.52,27.81,31.04,14.49,49.97,1011.62,2032.85,2536.14,2506.12,2807.04,599.95,590.03,43.97,0000 0000 0000 0000 000000
2016-04-30 05:18:52,0.02,2.55,0.00,24.54,27.85,31.06,14.39,50.05,1011.70,2032.23,2534.80,2505.17,2805.93,599.96,590.00,44.03,0000 0000 0000 0000 000000
2016-04-30 05:23:54,0.07,2.56,0.00,24.55,27.89,31.09,14.37,49.97,1011.72,2032.02,2533.52,2504.26,2804.89,600.08,590.16,44.08,0000 0000 0000 0000 000000
2016-04-30 05:28:55,0.07,2.56,0.00,24.57,27.92,31.12,14.33,49.99,1011.73,2032.00,2532.57,2503.35,2803.92,599.71,589.82,44.13,0000 0000 0000 0000 000000
2016-04-30 05:33:56,0.05,2.56,0.00,24.57,27.96,31.15,14.34,50.05,1011.73,2032.00,2531.77,2502.71,2803.03,599.44,589.49,44.18,0000 0000 0000 0000 000000
2016-04-30 05:38:57,0.06,2.57,0.00,24.64,27.99,31.14,14.29,49.96,1011.73,2031.98,2530.84,2501.98,2802.11,600.09,590.01,44.23,0000 0000 0000 0000 000000
2016-04-30 05:43:59,0.04,2.57,0.00,24.68,28.03,31.17,14.37,49.97,1011.73,2031.74,2529.93,2501.15,2801.37,600.14,589.86,44.28,0000 0000 0000 0000 000000
2016-04-30 05:49:00,0.02,2.57,0.00,24.69,28.06,31.18,14.41,50.10,1011.73,2031.26,2528.98,2500.59,2800.63,600.16,589.97,44.33,0000 0000 0000 0000 000000
2016-04-30 05:54:01,0.02,2.57,0.00,24.72,28.10,31.19,14.38,50.04,1011.73,2031.04,2528.11,2499.93,2799.89,599.96,589.61,44.38,0000 0000 0000 0000 000000
2016-04-30 05:59:03,0.08,2.57,0.00,24.75,28.13,31.18,14.33,49.94,1011.73,2031.00,2527.13,2499.07,2798.91,599.54,589.24,44.43,0000 0000 0000 0000 000000
2016-04-30 06:04:04,0.09,2.58,0.00,24.78,28.16,31.19,14.32,49.97,1011.73,2031.00,2525.74,2498.12,2797.75,599.77,589.42,44.48,0000 0000 0000 0000 000000
2016-04-30 06:09:05,0.08,2.58,0.00,24.79,28.19,31.18,14.36,50.08,1011.74,2030.98,2524.57,2497.16,2796.71,600.23,589.80,44.53,0000 0000 0000 0000 000000
2016-04-30 06:14:07,0.07,2.59,0.00,24.81,28.21,31.20,14.30,50.05,1011.74,2030.93,2523.46,2496.29,2795.75,600.04,589.66,44.58,0000 0000 0000 0000 000000
2016-04-30 06:19:08,0.06,2.59,0.00,24.83,28.24,31.20,14.36,50.02,1011.75,2030.87,2522.21,2495.54,2794.71,600.19,589.71,44.63,0000 0000 0000 0000 000000
2016-04-30 06:24:09,0.01,2.59,0.00,24.86,28.25,31.20,14.43,50.08,1011.76,2030.41,2521.07,2494.87,2793.80,600.24,589.54,44.68,0000 0000 0000 0000 000000
2016-04-30 06:29:11,0.04,2.59,0.00,24.87,28.27,31.22,14.30,49.97,1011.76,2030.07,2520.04,2494.05,2792.83,600.38,589.74,44.73,0000 0000 0000 0000 000000
2016-04-30 06:34:12,0.08,2.60,0.00,24.88,28.27,31.22,14.22,49.88,1011.88,2030.03,2518.81,2493.20,2791.88,599.57,589.17,44.78,0000 0000 0000 0000 000000
2016-04-30 06:39:13,0.07,2.60,0.00,24.90,28.28,31.21,14.38,50.06,1012.13,2030.01,2517.67,2492.42,2791.01,600.09,589.78,44.83,0000 0000 0000 0000 000000
2016-04-30 06:44:14,0.05,2.60,0.00,24.92,28.29,31.23,14.36,50.04,1012.15,2030.00,2516.68,2491.89,2790.13,599.88,589.43,44.88,0000 0000 0000 0000 000000
2016-04-30 06:49:15,0.08,2.61,0.00,24.94,28.30,31.25,14.44,50.05,1012.16,2030.00,2515.58,2491.00,2789.28,600.13,589.80,44.93,0000 0000 0000 0000 000000
2016-04-30 06:54:17,0.08,2.61,0.00,24.96,28.30,31.24,14.30,49.98,1012.05,2030.00,2514.27,2490.10,2788.25,599.84,589.39,44.99,0000 0000 0000 0000 000000
2016-04-30 06:59:18,0.08,2.62,0.00,24.97,28.30,31.24,14.26,50.01,1012.19,2030.00,2513.10,2489.23,2787.25,599.91,589.49,45.04,0000 0000 0000 0000 000000
2016-04-30 07:04:20,0.06,2.62,0.00,25.01,28.30,31.26,14.43,49.94,1012.22,2030.00,2512.13,2488.61,2786.47,600.20,589.64,45.09,0000 0000 0000 0000 000000
2016-04-30 07:09:21,0.05,2.62,0.00,25.02,28.30,31.25,14.34,49.90,1012.22,2030.00,2511.10,2487.96,2785.61,600.00,589.37,45.14,0000 0000 0000 0000 000000
2016-04-30 07:14:22,0.06,2.63,0.00,25.03,28.29,31.25,14.48,49.84,1012.22,2030.00,2510.17,2487.12,2784.88,600.14,589.54,45.19,0000 0000 0000 0000 000000
2016-04-30 07:19:23,0.05,2.63,0.00,25.05,28.28,31.25,14.25,49.71,1012.23,2030.00,2509.36,2486.77,2784.10,599.51,588.97,45.24,0000 0000 0000 0000 000000
2016-04-30 07:24:24,0.06,2.63,0.00,25.07,28.27,31.24,14.31,49.88,1012.23,2030.00,2508.28,2486.00,2783.29,599.98,589.29,45.29,0000 0000 0000 0000 000000
2016-04-30 07:29:26,0.07,2.64,0.00,25.07,28.27,31.25,14.30,49.89,1012.23,2030.00,2507.34,2485.21,2782.44,600.21,589.53,45.34,0000 0000 0000 0000 000000
2016-04-30 07:34:27,0.06,2.64,0.00,25.07,28.27,31.24,14.33,49.88,1012.24,2030.00,2506.35,2484.70,2781.71,599.97,589.44,45.39,0000 0000 0000 0000 000000
2016-04-30 07:39:28,0.04,2.64,0.00,25.07,28.27,31.25,14.41,49.89,1012.24,2030.00,2505.35,2484.03,2781.00,600.24,589.57,45.44,0000 0000 0000 0000 000000
2016-04-30 07:44:30,0.07,2.65,0.00,25.07,28.25,31.25,14.37,49.83,1012.24,2030.00,2504.49,2483.46,2780.25,600.00,589.38,45.49,0000 0000 0000 0000 000000
2016-04-30 07:49:31,0.12,2.65,0.00,25.07,28.25,31.25,14.37,49.84,1012.25,2030.00,2502.57,2482.52,2779.20,600.03,589.27,45.54,0000 0000 0000 0000 000000
2016-04-30 07:54:32,0.38,2.67,0.00,25.09,28.25,31.24,14.30,49.81,1012.24,2030.00,2495.56,2479.28,2775.54,600.03,589.35,45.59,0000 0000 0000 0000 000000
2016-04-30 07:59:33,0.89,2.70,0.00,25.09,28.25,31.24,14.36,49.83,1012.25,2030.00,2481.87,2473.24,2768.75,599.94,589.32,45.64,0000 0000 0000 0000 000000
2016-04-30 08:04:35,1.03,2.75,0.00,25.09,28.24,31.25,14.30,49.79,1012.27,2030.00,2460.81,2464.12,2758.61,599.72,588.96,45.69,0000 0000 0000 0000 000000
2016-04-30 08:09:37,1.02,2.80,0.00,25.08,28.22,31.25,14.42,49.80,1012.29,2030.00,2441.53,2455.59,2749.29,600.25,589.58,45.74,0000 0000 0000 0000 000000
2016-04-30 08:14:38,0.69,2.85,0.00,25.09,28.22,31.30,14.38,49.92,1012.31,2030.00,2425.04,2448.22,2741.14,600.05,589.40,45.79,0000 0000 0000 0000 000000
2016-04-30 08:19:39,0.12,2.86,0.00,25.09,28.22,31.23,14.35,49.79,1012.37,2030.00,2421.68,2446.50,2739.17,599.94,589.34,45.85,0000 0000 0000 0000 000000
2016-04-30 08:24:40,0.05,2.87,0.00,25.09,28.22,31.28,14.35,49.77,1012.33,2030.00,2420.59,2445.98,2738.37,600.11,589.41,45.90,0000 0000 0000 0000 000000
2016-04-30 08:29:42,0.07,2.87,0.63,25.07,28.22,31.26,14.27,49.76,1012.54,2030.00,2419.59,2445.23,2737.80,599.90,589.39,45.95,0000 0000 0000 0000 000000
2016-04-30 08:34:43,0.07,2.87,1.00,25.07,28.21,31.24,14.25,49.69,1012.49,2030.00,2418.49,2444.63,2736.97,599.89,589.38,46.00,0000 0000 0000 0000 000000
2016-04-30 08:39:45,0.05,2.88,1.00,25.08,28.20,31.23,14.28,49.73,1012.30,2030.00,2417.61,2444.01,2736.12,600.16,589.53,46.05,0000 0000 0000 0000 000000
2016-04-30 08:44:46,0.07,2.88,1.00,25.08,28.20,31.22,14.48,49.89,1012.25,2030.00,2416.68,2443.35,2735.52,600.43,589.73,46.10,0000 0000 0000 0000 000000
2016-04-30 08:49:48,0.02,2.88,1.00,25.07,28.20,31.25,14.37,49.83,1012.42,2030.00,2415.89,2442.98,2734.92,600.02,589.45,46.15,0000 0000 0000 0000 000000
2016-04-30 08:54:49,0.07,2.89,1.00,25.08,28.20,31.31,14.37,49.82,1012.58,2030.00,2415.03,2442.19,2734.11,599.91,589.45,46.20,0000 0000 0000 0000 000000
2016-04-30 08:59:50,0.04,2.89,0.33,25.08,28.20,31.26,14.43,49.86,1012.68,2030.00,2414.18,2441.98,2733.66,600.23,589.88,46.25,0000 0000 0000 0000 000000
2016-04-30 09:04:51,0.06,2.89,0.00,25.07,28.20,31.25,14.26,49.79,1012.70,2030.00,2413.47,2441.29,2733.02,599.92,589.56,46.30,0000 0000 0000 0000 000000
2016-04-30 09:09:52,0.03,2.89,0.00,25.06,28.19,31.24,14.47,49.75,1012.70,2030.00,2412.76,2440.98,2732.43,600.27,589.74,46.35,0000 0000 0000 0000 000000
2016-04-30 09:14:53,0.06,2.90,0.00,25.05,28.18,31.24,14.30,49.86,1012.71,2030.00,2411.84,2440.25,2731.87,599.96,589.63,46.40,0000 0000 0000 0000 000000
2016-04-30 09:19:54,0.04,2.90,0.00,25.05,28.17,31.26,14.39,49.88,1012.71,2030.00,2410.98,2439.94,2731.08,600.05,589.76,46.45,0000 0000 0000 0000 000000
2016-04-30 09:24:55,0.07,2.90,0.00,25.05,28.17,31.24,14.35,49.67,1012.70,2030.00,2410.12,2439.19,2730.51,599.91,589.58,46.50,0000 0000 0000 0000 000000
2016-04-30 09:29:57,0.03,2.90,0.00,25.05,28.17,31.24,14.44,49.88,1012.70,2030.00,2409.30,2438.93,2729.98,599.84,589.48,46.55,0000 0000 0000 0000 000000
2016-04-30 09:34:58,0.07,2.91,0.00,25.05,28.17,31.22,14.36,49.79,1012.70,2030.02,2408.44,2438.19,2729.23,600.24,589.97,46.60,0000 0000 0000 0000 000000
2016-04-30 09:39:59,0.04,2.91,0.00,25.05,28.17,31.23,14.34,49.65,1012.71,2030.00,2407.70,2437.84,2728.67,600.04,589.70,46.65,0000 0000 0000 0000 000000
2016-04-30 09:45:00,0.04,2.91,0.00,25.05,28.17,31.23,14.50,49.88,1012.71,2030.00,2406.96,2437.09,2728.03,600.32,589.83,46.70,0000 0000 0000 0000 000000
2016-04-30 09:50:01,0.04,2.92,0.00,25.06,28.17,31.23,14.50,49.94,1012.71,2030.02,2406.11,2436.95,2727.55,600.17,589.88,46.75,0000 0000 0000 0000 000000
2016-04-30 09:55:02,0.06,2.92,0.00,25.06,28.17,31.22,14.30,49.78,1012.71,2030.01,2405.44,2436.22,2727.00,600.01,589.56,46.81,0000 0000 0000 0000 000000
2016-04-30 10:00:03,0.03,2.92,0.00,25.05,28.17,31.19,14.35,49.79,1012.71,2030.02,2404.78,2435.98,2726.29,600.00,589.71,46.86,0000 0000 0000 0000 000000
2016-04-30 10:05:05,0.05,2.92,0.00,25.05,28.17,31.20,14.27,49.89,1012.71,2030.01,2404.02,2435.38,2725.93,599.47,589.08,46.91,0000 0000 0000 0000 000000
2016-04-30 10:10:07,0.04,2.93,0.00,25.06,28.16,31.24,14.32,49.88,1012.71,2030.02,2403.25,2434.99,2725.15,599.90,589.63,46.96,0000 0000 0000 0000 000000
2016-04-30 10:15:08,0.07,2.93,0.00,25.05,28.15,31.25,14.46,49.85,1012.71,2030.01,2402.43,2434.23,2724.60,600.44,590.09,47.01,0000 0000 0000 0000 000000
2016-04-30 10:20:09,0.02,2.93,0.00,25.04,28.15,31.27,14.30,49.73,1012.71,2030.02,2401.77,2433.96,2724.00,600.12,589.77,47.06,0000 0000 0000 0000 000000
2016-04-30 10:25:10,0.07,2.93,0.00,25.05,28.15,31.27,14.28,49.71,1012.71,2030.02,2401.00,2433.15,2723.22,599.67,589.43,47.11,0000 0000 0000 0000 000000
2016-04-30 10:30:11,0.03,2.94,0.00,25.02,28.15,31.30,14.38,49.75,1012.71,2030.00,2400.16,2432.94,2722.87,599.97,589.80,47.16,0000 0000 0000 0000 000000
2016-04-30 10:35:13,0.07,2.94,0.00,25.00,28.15,31.29,14.34,49.74,1012.71,2030.02,2399.49,2432.22,2722.08,599.89,589.65,47.21,0000 0000 0000 0000 000000
2016-04-30 10:40:14,0.02,2.94,0.00,25.00,28.15,31.28,14.33,49.71,1012.71,2030.03,2398.83,2431.99,2721.73,599.95,589.65,47.26,0000 0000 0000 0000 000000
2016-04-30 10:45:15,0.06,2.94,0.00,24.99,28.15,31.29,14.35,49.73,1012.71,2030.02,2398.03,2431.47,2721.03,599.94,589.76,47.31,0000 0000 0000 0000 000000
2016-04-30 10:50:17,0.04,2.95,0.00,25.00,28.15,31.30,14.35,49.73,1012.64,2030.03,2397.23,2431.01,2720.54,600.02,589.89,47.36,0000 0000 0000 0000 000000
2016-04-30 10:55:18,0.05,2.95,0.00,25.02,28.15,31.33,14.38,49.67,1012.61,2030.02,2396.54,2430.58,2719.96,600.11,589.82,47.41,0000 0000 0000 0000 000000
2016-04-30 11:00:19,0.04,2.95,0.00,25.02,28.15,31.32,14.42,49.74,1012.63,2030.03,2395.85,2430.01,2719.19,600.28,590.00,47.46,0000 0000 0000 0000 000000
2016-04-30 11:05:21,0.06,2.95,0.00,25.04,28.15,31.34,14.29,49.67,1012.69,2030.03,2394.93,2429.55,2718.72,599.87,589.46,47.51,0000 0000 0000 0000 000000
2016-04-30 11:10:22,0.06,2.96,0.00,25.06,28.14,31.33,14.37,49.60,1012.68,2030.07,2393.85,2428.91,2717.88,600.26,589.92,47.56,0000 0000 0000 0000 000000
2016-04-30 11:15:23,0.07,2.96,0.00,25.04,28.14,31.34,14.29,49.64,1012.64,2030.04,2392.83,2428.08,2717.03,599.93,589.57,47.61,0000 0000 0000 0000 000000
2016-04-30 11:20:25,0.06,2.96,0.00,25.07,28.14,31.36,14.36,49.64,1012.62,2030.04,2392.00,2427.60,2716.25,599.94,589.51,47.67,0000 0000 0000 0000 000000
2016-04-30 11:25:26,0.04,2.97,0.00,25.04,28.14,31.35,14.36,49.73,1012.71,2030.04,2391.16,2427.02,2715.93,599.74,589.47,47.72,0000 0000 0000 0000 000000
2016-04-30 11:30:27,0.05,2.97,0.00,25.01,28.13,31.36,14.45,49.67,1012.71,2030.04,2390.44,2426.75,2715.13,600.61,590.34,47.77,0000 0000 0000 0000 000000
2016-04-30 11:35:29,0.04,2.97,0.00,24.99,28.12,31.37,14.32,49.73,1012.69,2030.03,2389.73,2426.04,2714.74,600.14,590.02,47.82,0000 0000 0000 0000 000000
2016-04-30 11:40:30,0.03,2.97,0.00,24.96,28.12,31.38,14.33,49.70,1012.70,2030.05,2389.01,2425.93,2714.03,599.94,589.79,47.87,0000 0000 0000 0000 000000
2016-04-30 11:45:31,0.07,2.98,0.00,24.93,28.12,31.40,14.37,49.70,1012.65,2030.08,2388.19,2425.17,2713.62,599.89,589.78,47.92,0000 0000 0000 0000 000000
2016-04-30 11:50:33,0.03,2.98,0.00,24.90,28.11,31.40,14.36,49.66,1012.63,2030.07,2387.60,2424.96,2713.02,600.13,590.05,47.97,0000 0000 0000 0000 000000
2016-04-30 11:55:34,0.06,2.98,0.00,24.86,28.10,31.39,14.30,49.67,1012.69,2030.10,2386.87,2424.26,2712.51,599.84,589.86,48.02,0000 0000 0000 0000 000000
2016-04-30 12:00:35,0.02,2.98,0.00,24.83,28.10,31.37,14.39,49.77,1012.66,2030.07,2386.04,2423.99,2712.00,600.20,590.30,48.07,0000 0000 0000 0000 000000
2016-04-30 12:05:37,0.07,2.99,0.00,24.81,28.09,31.36,14.35,49.85,1012.52,2030.10,2385.34,2423.58,2711.41,599.88,589.80,48.12,0000 0000 0000 0000 000000
2016-04-30 12:10:38,0.04,2.99,0.00,24.80,28.07,31.34,14.38,49.86,1012.30,2030.20,2384.77,2423.02,2710.99,600.18,590.11,48.17,0000 0000 0000 0000 000000
2016-04-30 12:15:39,0.06,2.99,0.00,24.75,28.07,31.33,14.37,49.67,1012.26,2030.41,2384.01,2422.82,2710.32,600.12,590.11,48.22,0000 0000 0000 0000 000000
2016-04-30 12:20:40,0.06,3.00,0.00,24.73,28.06,31.28,14.36,49.73,1012.24,2030.39,2383.17,2422.07,2709.96,599.88,589.93,48.27,0000 0000 0000 0000 000000
2016-04-30 12:25:41,0.06,3.00,0.00,24.71,28.05,31.29,14.38,49.77,1012.22,2030.69,2382.64,2421.92,2709.25,600.17,590.29,48.32,0000 0000 0000 0000 000000
2016-04-30 12:30:42,0.06,3.00,0.00,24.69,28.05,31.31,14.47,49.76,1012.22,2030.77,2381.92,2421.20,2708.95,600.15,590.25,48.37,0000 0000 0000 0000 000000
2016-04-30 12:35:44,0.05,3.01,0.00,24.69,28.03,31.32,14.39,49.87,1012.23,2030.92,2381.11,2421.00,2708.20,600.21,590.25,48.42,0000 0000 0000 0000 000000
2016-04-30 12:40:45,0.05,3.01,0.00,24.68,28.02,31.28,14.36,49.67,1012.24,2030.96,2380.45,2420.54,2707.94,600.19,590.30,48.47,0000 0000 0000 0000 000000
2016-04-30 12:45:47,0.03,3.01,0.00,24.65,28.02,31.28,14.40,49.85,1012.27,2030.96,2379.88,2420.02,2707.16,600.00,590.30,48.53,0000 0000 0000 0000 000000
2016-04-30 12:50:48,0.03,3.01,0.00,24.61,28.02,31.24,14.40,49.83,1012.37,2030.97,2379.07,2419.87,2706.93,599.80,590.06,48.58,0000 0000 0000 0000 000000
2016-04-30 12:55:49,0.07,3.02,0.00,24.60,28.00,31.24,14.38,49.90,1012.36,2030.97,2378.37,2419.13,2706.16,600.09,590.54,48.63,0000 0000 0000 0000 000000